Location: *
(58.4167°N, 22.5000°E)
Time: 22:56:26
(UTC+00:00)

Cosmos 2084 Rocket - Pass Details

Date: 22 September 2019
Orbit: 571 x 610 km, 62.8° (Epoch: 14 October)

Event Time Altitude Azimuth Distance (km) Brightness Sun altitude
Rises 17:49:19 0° 196° (SSW) 2,861 7.0 -10.9°
Reaches altitude 10° 17:51:50 10° 184° (S) 1,963 6.0 -11.3°
Maximum altitude 17:55:33 27° 127° (SE) 1,193 4.5 -11.7°
Enters shadow 17:59:02 11° 72° (ENE) 1,888 5.6 -12.1°
